Weather Roundup
Issued by NWS

Home | Current Version | Previous Version | Graphics & Text | Print | Product List | Glossary On
Versions: 1 2 3 4 5 6 7 8 9 10 11 12 13 14 15 16 17 18 19 20 21 22 23 24 25 26 27 28 29 30 31 32 33 34 35 36 37 38 39 40 41 42 43 44 45 46 47 48 49 50
000
NZUS93 KARX 031559
HRRWXR

CURRENT HOURLY OBSERVATIONS ACROSS
MUCH OF THE UPPER MISSISSIPPI VALLEY
NATIONAL WEATHER SERVICE LA CROSSE WI
1100 AM CDT WED JUN 03 2015


...SOUTHEAST MINNESOTA...


CITY           SKY/WX    TMP DP  RH WIND       PRES   REMARKS
ROCHESTER      PTSUNNY   70  56  61 SE23      29.86F
ROCHESTER/MAYO FAIR      68  55  63 SE12G24   29.87F
WINONA         PTSUNNY   72  57  60 S6        29.91F
AUSTIN         LGT RAIN  66  57  72 S15G22    29.87R
ALBERT LEA     CLOUDY    64  57  77 S12G23    29.86F
DODGE CENTER   CLOUDY    70  55  60 SE18      29.86S
PRESTON        PTSUNNY   67  55  65 S17       29.90F
OWATONNA       CLOUDY    64  57  77 S9G16     29.86R
FARIBAULT      CLOUDY    66  61  82 S9        29.86R
$$

...ELSEWHERE IN MINNESOTA...


CITY           SKY/WX    TMP DP  RH WIND       PRES   REMARKS
MINNEAPOLIS    CLOUDY    65  58  78 S8        29.83F
INTNL FALLS    CLOUDY    66  60  81 N6        29.84S
DULUTH         CLOUDY    61  53  75 E9        29.87S
RED WING       CLOUDY    66  57  72 SE14      29.83F
REDWOOD FALLS  TSTM      63  61  93 SW6       29.83R FOG
MANKATO        CLOUDY    63  57  82 S7        29.85R THUNDER
WORTHINGTON    CLOUDY    63  61  94 NW13      29.83S
FAIRMONT       CLOUDY    64  55  72 S17       29.83S
$$

...SOUTHWEST WISCONSIN...


CITY           SKY/WX    TMP DP  RH WIND       PRES   REMARKS
LA CROSSE      PTSUNNY   73  55  53 S21G29    29.93F
PRAIRIE DU CHI CLOUDY    70  55  57 SE8       29.96F
BOSCOBEL       PTSUNNY   74  57  55 S8G18     29.97F
LONE ROCK      NOT AVBL
PLATTEVILLE    PTSUNNY   70  58  66 S17G23    30.01S
FORT MC COY    PTSUNNY   71  53  53 S12G18    29.96F
VIROQUA        FAIR      68  54  62 S16G24    29.97F
WIS DELLS      MOSUNNY   69  56  62 S9        30.00F
$$

...ELSEWHERE IN WISCONSIN...


CITY           SKY/WX    TMP DP  RH WIND       PRES   REMARKS
MILWAUKEE      MOSUNNY   64  51  62 SE10      30.06F
MADISON        PTSUNNY   70  54  56 S14       30.02F
GREEN BAY      SUNNY     72  53  51 S12       30.04S
EAU CLAIRE     NOT AVBL
BLACK RVR FLS  FAIR      70  53  55 S8        29.94F
MEDFORD        PTSUNNY   66  56  68 S17G25    29.96F
WAUSAU         MOSUNNY   70  52  52 S16       29.97F
WIS RAPIDS     PTSUNNY   72  51  47 S10G20    30.00S
MARSHFIELD     PTSUNNY   71  54  54 S18       29.97F
RICE LAKE      CLOUDY    66  54  65 SE10G18   29.91S
$$

...NORTHEAST IOWA...


CITY           SKY/WX    TMP DP  RH WIND       PRES   REMARKS
DECORAH        PTSUNNY   68  57  68 S15G22    29.92F
MASON CITY     CLOUDY    64  59  83 S14       29.89S
CHARLES CITY   CLOUDY    72  59  64 SE21G28   29.87F
OELWEIN        PTSUNNY   70  57  64 S21G30    29.92F
$$

...ELSEWHERE IN IOWA...


CITY           SKY/WX    TMP DP  RH WIND       PRES   REMARKS
DES MOINES     CLOUDY    71  65  81 S15       29.84F
IOWA CITY      CLOUDY    69  58  67 S10       29.98F
FORT DODGE     CLOUDY    72  63  73 S17G23    29.87S
$$

...NORTHERN ILLINOIS...


CITY           SKY/WX    TMP DP  RH WIND       PRES   REMARKS
CHICAGO-OHARE  MOSUNNY   69  53  56 SE8       30.05F
CHICAGO-MIDWAY MOSUNNY   70  54  56 SE3       30.06F
MOLINE         MOSUNNY   71  56  58 S13       30.00F
ROCKFORD       PTSUNNY   72  57  59 S10       30.05F
PEORIA         CLOUDY    70  57  63 S13       30.04S
$$

NOTE: "FAIR" INDICATES FEW OR NO CLOUDS BELOW 12,000 FEET WITH NO
SIGNIFICANT WEATHER AND/OR OBSTRUCTIONS TO VISIBILITY. WIND
SPEEDS ARE IN MILES-PER-HOUR.



USA.gov is the U.S. government's official web portal to all federal, state and local government web resources and services.